Location: Cella
(44.7333°N, 10.5667°E)
Time: 10:15:04
(UTC+00:00)

Cosmos 1777 Rocket - Pass Details

Date: 19 June 2021
Orbit: 757 x 776 km, 74.0° (Epoch: 28 July)

Event Time Altitude Azimuth Distance (km) Brightness Sun altitude
Rises 23:52:05 0° 328° (NNW) 3,261 8.0 -21.4°
Reaches altitude 10° 23:54:49 10° 315° (NW) 2,330 7.0 -21.4°
Maximum altitude 23:59:06 26° 261° (W) 1,512 5.3 -21.2°
Enters shadow 23:59:48 25° 249° (WSW) 1,539 5.3 -21.2°
